Delray Beach, FL (33483)

10:54 PM EDT on June 26, 2017 (GMT -0400)
Lake Ida - Garden House | | Change Station

Elev 0 ft 26.48 °N, 80.07 °W | Updated 33 seconds ago

Partly Cloudy
Partly Cloudy
81.9 °F
Feels Like 87 °F
N
0.0
Wind Variable Wind from South

Today
High -- | Low -- °F
--% Chance of Precip.
Yesterday
High -- | Low -- °F
Precip. -- in
Pressure 30.04 in
Visibility 10.0 miles
Clouds Few 2200 ft
Scattered Clouds 10000 ft
Heat Index 87 °F
Dew Point 72 °F
Humidity 73%
Rainfall 0.00 in
Snow Depth Not available.
6:29 AM 8:17 PM
Waxing Crescent, 13% visible
METAR KPMP 270153Z AUTO 16006KT 10SM FEW022 SCT100 29/24 A3003 RMK AO2 SLP170 T02890239
Pressure 30.04 in
Visibility 10.0 miles
Clouds Few 2200 ft
Scattered Clouds 10000 ft
Heat Index 87 °F
Dew Point 72 °F
Humidity 73%
Rainfall 0.00 in
Snow Depth Not available.
6:29 AM 8:17 PM
Waxing Crescent, 13% visible
METAR KPMP 270153Z AUTO 16006KT 10SM FEW022 SCT100 29/24 A3003 RMK AO2 SLP170 T02890239

Get Severe Weather Alerts

Thanks for signing up!

Be on the lookout for a verification email in your inbox.

You'll start receiving the daily forecast at 6 AM.

×

10-Day Weather Forecast

Almanac

Astronomy

Jun. 26, 2017 Rise Set
Actual Time
Civil Twilight
Nautical Twilight
Astronomical Twilight
Moon
Length of Visible Light
Length of Day
Tomorrow will be .
, % of the Moon is Illuminated

Today's Extremes

State Highs State Lows

Community

WunderPhotos

Category 6

Welcome to Category 6. This is the collective home for Weather Underground's featured writeups by Dr. Jeff Masters (right), Bob Henson (left), Chris Burt, and other regular contributors.

Nearby

Air Quality

  Air Quality AQ Index Pollutant
Not available.

Snow Depth

Station Depth Elevation

Earthquake Activity

City Distance Mag. Time & Date
Minimum magnitude displayed is 2.5.

Coastal Water Temperatures

Place Temperature

Stations

Nearby Weather Stations

Station Location Temp. Windchill Dew Point Humidity Wind Precip. Elev Updated Type
                   

Watches & Warnings

There are currently no watches in effect.